Location: Julian California
(33.0790°N, 116.6010°W)
Time: 21:14:40
(UTC-08:00)

Terra - Pass Details

Date: 14 June 2018
Orbit: 702 x 703 km, 98.2° (Epoch: 18 November)

Event Time Altitude Azimuth Distance (km) Brightness Sun altitude
Exits shadow 23:26:29 36° 290° (WNW) 1,102 3.0 -30.4°
Drops below altitude 10° 23:30:01 10° 331° (NNW) 2,170 5.2 -30.7°
Sets 23:32:24 0° 339° (NNW) 3,092 6.3 -30.9°
